Back to catalog

BEIDOU 3M13

AliveNavigationMEO
NORAD 43622·PAYLOAD·🇨🇳 China

Launched Sep 19, 2018 from Xichang Satellite Launch Center

Loading…

Next Passes (next 24 hours)

TLE

FreshSource: CelesTrak SupGP

Epoch: Sep 12, 2026, 00:00 UTC

1 43622C 18072A   26255.00000000  .00000000  00000+0  00000+0 0  2558
2 43622  56.7048  59.7992 0004047 324.5690  45.0572  1.86231198    17

Track BEIDOU 3M13 in real time with AllMySat

Download on the App Store